Theta_e
294 295 295 295 295 296 297 297 297 297 297 298 298 299 299 299 299 300 298 298 297 297 297 297 298 298 298 297 298 298 299 299 300 301 301 301 302 302 301 301 300 299 298 297 297 298 297 297 297 296 296 295 295 295 294 294 293 292 292 291 291 291 291 290 290 290 290 284 284 284 284 283 282 283 282 282 282 283 283 282 283 283 284 285 287
295 295 294 294 294 295 295 295 295 295 295 296 296 297 297 297 297 295 297 298 296 297 297 297 297 297 297 298 297 297 298 299 299 299 300 299 298 300 300 298 298 298 297 297 297 297 296 296 296 296 296 295 295 294 294 293 292 291 291 290 290 291 291 290 290 290 290 285 284 285 284 283 282 283 281 281 281 282 282 281 282 282 281 282 282
293 293 294 294 294 293 292 292 292 292 293 294 293 294 294 294 294 295 296 295 294 296 296 296 295 295 296 296 297 296 297 297 297 297 297 297 297 297 298 297 296 296 296 297 297 296 295 295 295 296 296 295 294 294 294 293 292 291 290 290 290 290 290 290 289 289 289 289 285 283 282 282 282 282 282 282 281 281 281 281 280 281 281 281 280
291 291 291 292 292 291 291 291 291 291 291 292 292 292 292 292 292 292 293 294 294 293 294 295 294 294 294 294 294 295 295 295 295 295 296 296 296 296 296 296 296 296 296 296 296 295 295 294 295 295 295 294 294 294 294 293 292 291 290 290 290 290 291 290 290 289 290 289 285 283 283 282 282 283 282 281 280 280 280 281 281 280 280 281 280
290 290 290 290 290 290 290 290 290 290 291 291 291 291 291 291 291 291 292 292 293 293 292 292 293 293 294 294 294 294 294 294 294 295 295 295 295 295 296 296 296 296 296 296 294 295 295 295 295 295 294 293 293 293 293 292 292 291 291 291 290 290 290 290 289 289 288 288 287 284 283 282 282 281 281 279 279 279 280 280 280 279 280 281 280
289 289 289 290 290 290 290 289 290 290 290 290 290 290 291 290 290 290 291 292 292 292 292 292 292 292 293 294 294 294 294 294 294 295 295 294 294 294 295 295 295 295 295 295 295 295 295 295 295 295 294 293 293 293 293 292 292 291 290 290 290 290 289 288 288 288 287 287 287 282 281 280 280 280 280 280 279 278 278 280 280 279 279 279 279
288 289 289 289 289 289 289 289 289 289 290 290 290 290 289 289 289 290 290 290 291 291 291 291 291 291 293 293 293 293 293 293 293 294 294 294 293 293 293 293 293 294 295 295 295 295 295 295 295 295 295 294 294 294 293 293 292 291 291 290 290 289 288 288 287 287 287 286 286 284 281 281 280 279 280 281 280 280 278 278 277 279 279 279 278
288 288 288 288 288 289 289 288 289 289 289 289 289 289 289 289 289 289 289 289 290 290 291 291 291 291 292 292 292 292 292 293 293 293 293 293 293 293 293 293 293 293 293 294 294 294 294 294 294 295 295 295 294 294 294 293 292 291 291 290 290 289 288 287 286 286 286 286 285 283 281 280 280 281 281 280 279 278 279 278 276 277 277 278 279
288 288 287 288 288 288 288 288 288 288 288 288 288 288 288 288 288 288 288 289 289 290 290 290 290 291 291 291 291 291 291 292 293 293 293 293 293 293 293 293 293 293 293 293 293 293 293 294 294 294 293 291 291 292 293 293 293 291 291 290 289 288 288 287 287 286 285 285 285 284 281 280 279 279 278 277 277 277 278 278 277 278 278 277 278
287 288 288 288 288 288 288 287 288 287 288 288 288 288 288 288 288 287 288 288 288 289 289 289 289 290 290 291 291 291 291 292 290 291 292 293 293 293 293 293 292 293 293 293 293 292 293 293 294 290 289 289 289 290 292 292 292 293 292 291 289 288 287 287 286 286 285 285 284 284 281 280 280 280 279 278 279 280 278 277 276 278 278 277 278
287 287 288 288 287 287 288 288 287 288 288 287 288 287 287 287 287 287 287 287 287 288 288 288 288 289 289 290 290 291 291 291 290 292 293 294 293 293 292 292 292 292 292 293 293 293 292 292 292 291 289 289 289 290 291 291 292 292 292 291 291 290 288 287 286 286 285 285 285 284 282 281 282 281 280 280 279 279 278 278 278 278 277 275 274
287 287 287 287 287 287 287 287 287 287 287 287 287 286 286 285 286 286 286 286 287 287 287 287 288 288 289 289 289 290 291 290 292 292 293 293 293 293 293 292 292 292 292 292 292 292 292 292 292 292 291 291 291 291 290 290 291 291 291 291 291 291 291 289 288 286 286 285 285 285 284 283 283 282 280 280 279 279 279 278 278 278 277 277 277
287 287 287 287 287 287 287 287 287 287 287 286 286 285 285 285 285 286 286 287 285 286 287 287 287 288 288 288 289 289 290 290 292 292 293 293 293 293 293 292 291 291 292 292 291 291 291 291 291 290 291 288 288 290 290 289 289 290 290 290 290 291 291 291 291 289 288 286 285 285 285 285 284 283 282 280 281 278 279 278 278 278 278 277 278
286 286 286 287 286 286 286 286 286 286 286 285 285 285 285 286 286 286 286 285 285 286 286 286 287 287 287 288 288 289 289 289 291 292 292 292 293 293 292 291 290 291 291 291 291 291 291 290 291 291 291 290 289 289 289 289 288 288 288 288 289 289 289 290 290 289 289 288 287 286 286 286 284 284 282 282 280 279 279 278 279 278 278 278 280
286 286 286 286 286 286 286 286 285 286 286 285 285 285 285 285 285 286 286 286 286 286 287 287 287 286 286 287 287 288 289 289 291 291 292 292 293 293 292 291 290 290 291 290 291 291 291 291 290 290 291 290 289 288 288 288 287 287 287 286 287 288 288 288 289 289 289 288 287 287 287 286 285 285 283 283 282 281 281 280 280 280 280 281 278
285 285 285 285 285 285 285 285 285 285 285 284 284 285 285 285 285 286 285 286 286 285 285 285 285 286 286 286 286 286 287 289 290 291 291 292 292 290 290 289 289 289 289 289 289 290 290 291 290 290 290 290 289 289 288 288 287 286 286 286 286 287 287 288 289 290 289 289 288 287 287 286 286 285 284 283 282 282 282 281 281 279 278 277 277
285 285 285 285 285 285 284 284 284 284 284 284 284 285 285 285 285 284 284 286 286 286 285 286 286 286 285 285 285 286 287 288 289 290 291 291 291 289 288 288 288 288 288 288 289 289 289 289 289 289 289 289 289 291 291 289 286 286 285 285 286 286 286 287 288 289 290 290 290 289 289 288 288 288 287 286 284 283 281 279 278 278 277 275 277
284 284 284 284 284 284 284 283 283 282 282 282 283 283 284 284 284 284 284 285 285 285 285 285 285 285 285 285 285 285 286 287 288 289 290 291 290 288 288 288 287 288 288 288 288 288 288 287 287 288 288 288 289 290 291 289 286 286 285 285 285 285 285 286 285 286 288 289 288 288 288 288 288 288 288 287 286 284 281 279 279 278 277 278 277
283 283 284 284 284 283 283 282 282 281 281 282 282 282 283 283 284 282 283 283 283 284 284 284 284 284 284 284 284 284 285 285 287 288 289 290 289 288 288 288 287 287 287 287 288 288 288 287 286 287 287 288 290 290 290 288 287 286 286 285 284 284 285 284 283 284 284 284 285 285 285 286 286 286 286 287 286 284 282 282 280 279 278 278 279
283 283 283 283 283 282 282 281 281 280 281 281 281 281 282 281 282 282 282 282 283 283 282 282 282 283 283 283 283 283 283 284 285 287 288 289 289 288 288 287 286 286 287 287 287 287 287 287 288 288 289 289 290 290 290 290 287 286 286 285 284 284 285 284 284 284 284 284 284 284 284 285 285 285 285 285 285 283 283 283 281 281 280 279 279
283 283 282 282 281 281 281 279 280 280 279 280 280 280 280 281 281 280 281 281 280 281 281 281 281 282 282 282 282 282 282 282 283 286 287 288 289 288 287 286 286 286 287 287 287 287 287 287 287 287 289 289 289 289 289 289 289 286 286 285 285 286 286 283 283 284 283 283 283 283 283 284 284 284 284 284 284 282 283 283 282 282 282 281 280
282 281 281 281 280 280 280 280 279 280 279 279 278 279 279 278 279 279 279 279 278 279 279 280 281 281 282 282 281 282 282 282 282 284 286 287 288 288 287 286 287 286 286 286 286 286 287 287 287 286 288 288 289 289 289 289 289 287 286 287 288 288 286 283 283 283 283 282 282 282 282 282 282 282 282 283 282 282 282 282 282 282 283 283 282
281 281 280 280 280 280 279 279 279 279 279 278 277 278 279 277 278 276 276 277 277 278 279 280 280 281 282 283 283 282 282 281 282 282 284 286 287 287 288 287 288 287 286 285 286 286 287 287 287 286 286 287 288 288 289 289 288 287 288 288 287 287 286 284 283 282 282 282 281 281 281 281 281 280 281 281 282 281 281 281 281 282 282 282 282
279 278 278 278 278 279 279 278 278 278 278 278 278 278 279 279 279 278 277 278 279 279 281 280 280 280 281 283 284 284 282 282 282 283 283 284 286 287 288 288 288 287 286 286 286 286 286 286 286 286 286 286 287 287 288 288 287 288 288 288 287 286 285 283 282 282 281 281 280 280 280 281 281 281 281 281 281 281 281 281 280 280 280 280 281
276 276 276 277 277 277 277 278 278 278 277 277 278 279 279 278 279 279 275 277 278 278 280 280 280 280 281 281 282 284 284 282 281 282 282 283 285 286 287 287 288 288 287 287 287 286 287 287 287 287 286 286 286 287 287 287 287 287 287 287 286 285 284 283 282 281 280 279 279 280 280 280 281 281 282 282 282 281 280 279 279 279 279 280 280
275 274 274 275 275 275 275 276 277 277 277 277 277 278 278 278 278 279 279 278 278 278 279 279 280 280 280 281 282 283 283 284 283 281 280 281 282 284 285 286 286 286 286 286 286 287 287 287 287 287 286 286 285 285 284 285 286 286 286 286 286 285 284 283 282 281 279 280 280 280 280 281 281 281 282 281 280 279 279 278 278 277 278 277 277
273 273 272 273 273 274 274 275 276 276 276 277 277 278 278 277 277 278 279 278 278 279 279 279 280 280 280 281 282 282 283 283 283 282 279 279 280 280 281 282 283 283 284 284 285 285 286 286 286 287 286 285 285 284 284 284 284 284 285 285 285 285 284 283 282 281 280 280 280 281 281 281 281 280 279 279 279 280 280 279 278 277 277 277 277
271 271 271 272 272 273 273 274 274 274 275 276 276 277 278 277 277 278 279 279 279 279 280 280 280 281 281 281 282 282 282 283 283 283 281 280 279 280 280 280 280 281 281 282 283 284 284 284 285 285 285 284 284 283 283 283 283 283 284 284 285 285 284 284 283 282 282 281 281 282 281 281 279 279 279 279 279 279 280 279 278 277 277 277 275
270 270 270 271 271 272 273 273 273 273 274 275 275 276 276 277 278 278 279 280 279 279 279 280 281 281 281 281 281 280 281 282 283 285 282 284 283 282 281 281 281 281 282 283 283 283 283 283 283 283 283 282 282 281 281 282 282 283 283 283 284 284 283 283 282 281 281 281 280 280 280 280 279 279 279 278 279 279 280 279 279 277 277 277 276
268 268 269 270 270 270 271 271 272 273 273 273 274 275 277 279 280 279 279 281 282 284 284 282 282 282 281 282 282 281 281 283 285 286 286 286 286 287 286 286 286 285 284 285 284 283 282 282 282 282 282 281 281 281 280 281 281 281 282 283 283 283 283 282 282 282 282 281 281 280 280 280 278 278 278 278 278 278 279 279 278 278 276 276 276
267 267 268 268 269 269 270 270 271 272 272 273 274 274 275 277 279 281 282 281 282 283 284 285 285 285 284 283 284 286 286 286 286 286 286 286 286 287 287 287 287 287 287 285 283 282 281 281 281 281 281 281 280 280 280 280 280 280 281 281 282 282 282 282 282 282 282 281 281 281 281 280 278 278 277 277 277 277 277 278 278 277 277 276 276
264 264 265 266 267 268 269 270 270 271 272 273 273 273 273 274 275 279 281 282 282 283 283 284 285 285 285 285 284 284 285 286 286 286 286 286 286 286 286 287 287 287 287 286 283 282 282 281 281 281 281 280 280 280 280 280 280 280 280 280 281 282 282 282 283 283 282 281 281 281 280 280 279 278 278 278 277 276 275 276 276 276 277 277 276
262 263 263 265 266 267 268 269 269 270 270 270 271 272 272 273 273 274 277 280 281 282 282 283 284 284 285 285 286 285 285 285 286 286 286 286 286 286 286 287 287 287 286 284 282 282 282 282 281 281 281 280 280 280 280 280 280 280 281 280 280 282 283 283 284 283 282 282 281 281 281 280 280 279 278 278 277 275 275 275 276 276 276 275 275
261 262 263 264 265 265 266 267 267 268 269 270 270 271 272 273 273 274 274 276 277 280 282 283 283 283 283 284 284 285 285 285 285 285 285 286 286 286 286 285 286 287 285 283 282 281 282 281 281 281 281 281 281 281 280 280 280 280 280 281 281 282 282 283 283 282 282 282 281 281 281 280 280 279 278 278 278 277 276 275 275 275 275 275 275
260 262 263 264 264 264 265 265 266 267 267 268 269 270 270 272 273 274 274 275 275 276 277 279 281 282 282 283 283 284 284 284 285 285 285 285 286 286 286 284 283 283 283 283 282 282 281 281 281 281 281 281 281 281 280 280 280 280 280 280 281 281 282 282 282 282 282 282 282 281 281 280 280 279 278 277 277 276 275 275 275 276 275 275 275
260 261 262 262 263 264 264 265 266 266 267 267 269 270 271 272 272 273 275 276 276 276 277 278 279 281 281 282 283 283 284 284 284 284 285 285 285 286 282 281 281 281 281 281 281 282 282 282 282 282 282 281 281 281 281 280 280 280 281 281 281 281 281 282 282 282 282 282 282 281 281 280 280 280 279 278 277 277 276 276 276 275 276 276 276
260 260 261 262 263 263 264 265 265 266 268 268 269 269 270 271 272 273 274 275 276 276 277 278 278 279 280 281 282 283 283 283 284 284 284 285 285 284 283 282 281 281 281 281 281 281 281 281 282 282 282 281 281 281 281 280 281 280 281 281 281 281 282 282 282 282 282 282 282 281 281 280 280 280 279 278 277 277 277 276 276 275 275 275 274
260 260 261 261 262 263 263 263 265 266 267 267 268 269 269 270 271 272 272 273 275 275 275 276 277 277 277 278 281 281 281 283 283 283 283 283 283 282 282 282 282 281 281 281 281 281 281 281 282 282 282 282 281 281 280 280 280 280 280 281 281 281 282 282 282 282 282 282 282 281 281 281 281 280 279 278 277 277 276 276 276 275 274 274 273
259 260 261 261 262 262 262 263 264 264 265 266 266 267 268 268 269 270 271 272 273 274 275 275 275 275 276 278 279 280 280 279 279 279 280 281 281 282 281 281 281 281 281 281 281 281 280 281 281 282 282 282 281 281 280 280 280 280 281 281 281 281 281 281 281 281 281 281 281 281 281 281 281 280 280 279 278 277 277 276 275 275 274 273 273
258 259 260 261 261 261 262 262 263 263 264 264 265 266 266 266 267 268 269 270 271 273 274 274 274 275 277 278 278 279 278 278 278 279 280 280 280 281 281 281 281 281 280 281 281 280 280 280 281 282 282 281 281 280 280 280 280 280 280 280 280 280 281 281 281 281 280 281 281 281 281 280 280 280 279 279 278 278 277 276 275 275 274 274 273
258 259 260 260 261 261 261 262 262 262 263 264 264 264 265 266 267 268 269 269 270 271 272 273 273 275 276 276 277 278 277 277 278 279 279 280 280 280 280 281 281 281 281 281 281 280 280 280 281 281 281 281 280 280 280 280 280 280 280 280 280 280 280 280 280 280 280 280 280 280 280 280 279 278 278 278 278 277 277 276 275 274 274 274 273
258 258 259 260 260 261 261 261 262 263 263 264 264 264 265 266 267 268 269 269 270 271 271 272 273 274 276 276 277 278 278 278 279 279 279 280 280 280 280 281 281 281 281 281 281 280 280 280 280 280 280 279 279 279 279 279 279 278 279 279 279 279 278 279 279 279 279 279 278 278 278 278 277 277 277 278 277 276 276 275 274 274 273 273 272
258 259 259 260 260 260 260 261 262 262 263 263 264 266 267 267 267 268 268 269 269 270 270 271 272 274 275 276 276 277 277 278 277 278 278 279 279 280 280 280 281 281 281 282 281 281 280 279 279 278 278 278 279 278 278 278 278 277 277 277 277 277 276 276 277 277 277 277 277 276 276 277 276 276 276 275 275 275 274 274 273 273 272 272 271
259 259 259 260 260 261 261 262 262 263 264 264 265 265 266 266 267 267 267 268 269 269 270 271 271 272 272 274 275 275 276 276 276 277 277 278 278 279 279 280 280 280 280 279 279 279 279 278 277 277 277 277 277 277 277 277 277 277 276 276 275 275 275 275 275 275 275 275 275 274 275 274 274 275 274 274 274 273 273 272 272 272 271 271 271
258 258 259 259 260 260 260 261 262 262 263 263 263 263 264 264 265 265 266 266 267 267 268 268 269 270 270 271 272 272 273 274 274 275 274 274 274 273 272 271 271 272 272 273 275 277 277 276 276 275 273 273 273 273 274 274 275 276 276 275 275 274 274 274 275 275 275 274 274 274 274 274 274 274 273 273 273 273 272 272 271 269 270 270 269
257 258 258 259 259 260 260 260 261 261 261 261 261 261 262 262 263 264 264 264 265 265 265 265 266 267 267 267 268 268 268 268 268 267 267 267 267 268 268 268 268 268 267 268 270 271 272 273 273 271 270 269 269 269 269 269 269 269 270 271 272 272 272 273 275 275 274 274 274 274 273 273 273 272 271 273 273 273 272 271 271 271 270 270 270
256 257 258 258 259 259 260 260 260 260 260 260 260 260 261 261 262 262 263 263 263 263 263 263 263 263 264 264 264 264 265 264 264 264 264 264 265 265 265 265 265 265 265 265 266 267 267 267 268 267 267 267 267 267 267 266 266 267 267 268 268 268 269 270 270 271 272 273 274 274 273 273 272 272 271 271 271 271 271 271 270 270 270 270 269
255 256 257 258 258 258 258 258 258 259 259 259 259 260 260 261 261 261 261 261 261 262 262 262 262 262 262 262 263 263 263 262 262 262 262 262 263 263 263 263 263 263 262 263 263 264 264 264 265 265 265 265 264 264 264 265 265 266 266 266 266 266 266 267 269 269 270 271 272 272 272 272 272 271 271 271 271 270 270 269 268 269 268 268 268
255 256 256 257 257 257 257 257 258 257 257 258 258 259 259 260 260 260 260 260 260 260 261 261 261 261 261 261 262 262 262 262 261 261 261 261 262 262 261 262 262 261 261 262 262 262 262 263 263 263 263 264 264 264 264 264 264 265 265 265 265 265 265 265 266 267 266 269 269 269 269 269 268 268 267 268 268 268 267 267 266 265 265 265 265
254 255 255 256 256 256 257 257 257 257 257 258 258 258 258 259 259 259 259 260 260 260 260 260 260 260 260 260 261 261 261 260 260 260 261 261 261 261 261 261 261 260 260 260 260 261 261 262 261 261 262 262 262 263 263 263 264 264 264 265 265 264 264 264 264 263 265 267 267 267 267 267 267 266 266 266 266 266 265 265 264 264 264 264 264
254 255 255 255 255 256 256 256 256 256 256 257 257 257 257 258 258 258 259 258 258 258 259 259 259 259 259 260 260 260 260 260 260 260 260 260 260 260 260 260 259 259 259 259 259 259 259 259 260 260 260 261 261 262 263 264 264 264 264 264 264 263 262 262 262 261 262 263 265 266 266 265 265 264 264 264 264 264 262 262 262 262 262 262 261
Wind_Speed
5 5 5 5 6 6 6 5 6 6 7 7 7 8 7 7 7 8 5 7 7 8 8 9 9 9 8 8 8 9 8 9 9 9 10 10 9 10 10 10 11 9 8 9 10 10 11 12 12 12 11 11 10 10 11 12 11 10 10 10 10 10 11 13 15 17 7 1 3 6 8 10 9 11 11 10 9 10 10 10 10 9 6 6 6
3 4 4 4 5 5 5 4 5 5 7 7 8 7 7 7 7 5 8 7 7 9 8 8 8 8 9 9 9 9 9 9 9 9 10 10 9 8 9 9 11 11 9 11 10 10 10 11 12 12 11 12 11 12 11 11 11 10 10 10 12 12 12 12 14 14 16 3 3 3 6 10 10 9 13 13 12 10 11 8 8 8 6 6 7
5 5 5 5 5 4 4 5 5 6 7 7 6 7 7 6 6 7 7 6 7 7 8 8 7 7 8 9 9 10 10 10 9 9 10 10 10 10 10 9 10 11 11 12 11 10 11 12 12 12 10 11 11 12 10 11 10 12 13 11 12 12 12 13 12 13 15 12 7 6 7 8 11 10 12 11 11 9 10 10 9 8 9 10 10
7 6 6 6 6 6 6 5 5 6 7 7 7 7 7 7 7 7 7 6 7 7 7 6 6 7 8 8 9 9 9 9 9 10 11 10 10 11 10 10 10 10 11 10 9 9 11 11 12 11 10 12 11 11 11 11 11 11 12 11 12 13 13 12 14 13 12 12 6 9 7 8 7 6 9 8 8 9 8 4 4 4 6 7 7
7 7 6 6 6 5 6 5 6 7 7 7 8 7 7 7 7 8 7 7 7 6 6 5 6 7 8 9 9 9 9 9 10 10 10 10 10 10 10 10 10 10 10 10 9 10 10 12 11 10 10 11 10 11 10 12 11 11 12 12 12 12 11 11 12 11 12 13 7 5 5 5 4 5 10 9 9 7 7 9 9 8 8 6 5
6 5 5 5 6 6 6 6 6 7 7 7 8 8 7 7 8 8 6 7 6 6 6 6 7 8 9 10 9 9 8 9 10 11 10 9 9 10 9 9 9 9 10 9 9 9 10 11 10 10 10 12 12 11 10 13 11 12 12 12 12 11 12 11 10 11 12 13 10 5 5 7 6 6 10 11 11 10 8 5 5 7 8 9 8
6 5 5 4 5 6 6 6 6 7 7 7 7 6 7 7 8 8 6 6 6 7 6 7 7 8 9 9 9 9 8 8 9 10 9 9 9 10 10 9 9 9 9 10 9 9 10 10 10 10 11 12 12 12 11 12 12 13 13 13 12 11 11 11 10 11 12 12 9 9 6 7 7 8 8 10 9 11 13 9 9 8 8 8 8
4 4 3 4 4 6 5 6 6 6 6 6 6 7 7 7 7 6 5 6 7 7 7 7 8 7 8 8 8 7 8 8 9 9 9 9 9 10 10 10 11 10 10 9 9 9 10 10 11 11 12 12 12 12 11 12 10 12 11 11 11 11 11 10 10 10 10 11 11 9 7 6 6 3 4 7 8 5 9 12 12 11 11 9 8
5 4 4 4 5 5 5 5 5 5 5 5 6 7 6 6 5 5 5 6 6 6 7 7 7 8 8 8 8 7 8 9 9 10 10 11 10 11 11 11 11 11 10 9 9 10 10 10 11 11 12 14 16 15 14 13 11 11 10 10 11 11 11 9 9 9 10 10 11 8 8 8 7 8 9 11 14 14 10 10 7 7 7 7 7
3 4 3 4 4 4 4 4 4 4 4 5 5 5 5 5 5 5 5 5 6 6 6 7 7 8 8 8 8 7 8 8 10 15 13 10 9 9 9 10 10 10 11 11 10 10 11 10 11 15 16 16 17 18 18 18 18 14 11 11 12 11 11 10 10 10 11 12 12 11 11 14 11 12 11 12 8 6 9 12 11 10 7 5 3
5 5 6 5 5 5 5 6 6 6 6 6 6 6 6 5 5 5 5 6 6 6 6 7 7 8 8 8 9 8 8 8 14 15 15 17 12 10 10 10 10 11 11 12 12 11 11 11 11 12 14 14 14 18 18 19 19 20 20 17 14 13 12 12 12 12 12 12 11 11 12 14 14 12 13 8 9 12 10 10 8 10 10 11 12
6 6 6 6 6 7 7 7 7 7 6 7 7 5 5 4 4 4 5 6 5 5 6 7 7 7 7 8 9 9 9 10 14 14 15 16 15 11 10 10 10 10 11 11 11 10 11 10 10 9 10 11 11 12 15 18 19 19 20 20 20 20 19 15 13 12 12 12 12 13 13 14 12 11 11 10 10 10 9 9 11 13 11 13 10
6 7 7 7 8 8 8 8 8 8 8 8 6 6 5 5 4 4 5 5 4 6 6 7 8 7 7 9 9 9 10 10 13 14 15 16 16 14 10 10 10 11 11 11 11 11 10 10 10 8 8 12 12 11 10 11 14 19 20 20 21 21 21 23 21 15 11 13 14 13 14 13 12 12 12 13 11 13 10 9 10 11 11 11 10
7 7 6 7 8 7 8 7 8 8 7 6 7 6 6 6 5 5 5 5 4 5 5 6 6 7 8 9 9 9 10 8 12 14 15 15 16 14 11 11 10 11 12 12 11 12 11 11 10 10 9 9 10 10 10 10 10 10 11 12 12 15 20 23 23 22 16 14 14 15 14 12 14 11 13 13 13 14 14 13 13 12 12 14 12
6 7 7 7 7 8 8 8 8 7 7 6 6 6 6 6 6 5 4 5 5 6 6 6 6 6 6 7 7 10 8 9 11 14 15 16 16 14 10 10 9 10 11 11 13 12 11 11 11 11 10 9 8 10 10 11 9 10 10 11 11 12 12 14 14 14 15 14 14 15 11 10 11 9 10 11 15 14 15 17 17 15 10 3 5
6 6 7 7 7 7 7 8 7 7 7 6 6 7 6 5 7 6 5 5 4 5 6 5 8 8 7 7 8 10 8 9 12 13 15 14 16 10 8 9 10 10 11 11 11 10 10 11 11 11 11 11 11 14 14 10 10 11 12 12 11 11 12 13 16 16 15 14 13 10 7 8 10 9 11 12 11 9 5 3 4 6 7 7 6
8 7 7 7 7 7 7 8 7 7 7 7 7 8 8 8 7 4 6 6 6 6 6 6 6 7 8 7 8 10 10 8 11 13 14 15 12 8 8 8 9 11 12 11 10 10 10 9 10 10 10 10 11 15 17 14 11 12 11 12 11 11 11 9 14 18 18 17 15 16 15 14 16 17 20 23 15 13 10 9 11 11 10 7 8
8 8 9 9 9 8 8 8 8 8 7 7 8 7 6 5 5 5 6 8 8 7 7 7 7 6 8 9 8 10 12 8 10 12 13 14 12 9 8 8 10 11 11 10 9 9 10 14 13 11 11 11 12 17 17 13 12 12 12 13 14 13 11 6 6 9 16 18 18 16 18 18 20 22 23 25 25 20 16 17 12 11 11 9 10
9 10 10 9 8 8 7 6 7 7 7 7 7 8 7 7 7 5 5 5 7 6 6 7 8 7 7 9 10 11 12 11 10 13 14 14 12 8 8 9 11 11 10 11 9 9 9 10 16 15 13 13 17 16 17 14 12 12 12 12 14 14 10 7 10 10 10 9 9 10 11 15 14 13 15 27 26 19 14 12 12 13 10 10 10
7 7 7 8 7 6 5 6 6 6 8 8 7 7 6 6 6 6 6 5 6 6 6 6 9 9 6 7 8 8 10 11 8 13 14 15 16 10 7 9 12 12 10 11 11 9 8 9 11 17 20 20 18 18 19 20 14 11 10 11 12 14 7 9 10 9 10 12 11 11 12 10 10 10 10 13 16 18 15 11 11 13 13 11 11
7 7 7 7 6 6 5 5 7 7 5 7 6 6 6 7 7 6 7 6 5 7 7 7 8 10 7 7 8 8 8 10 10 11 14 15 17 15 9 11 11 10 11 11 11 11 9 9 8 12 17 18 18 19 21 20 19 13 12 12 12 11 6 7 10 13 10 10 9 9 9 8 9 9 9 11 12 12 12 11 11 12 12 12 13
7 8 7 7 6 6 6 6 5 7 6 6 7 7 5 6 6 6 5 5 8 9 7 7 8 10 9 7 7 9 8 11 11 10 13 15 16 18 12 12 11 10 12 12 12 11 10 9 8 9 17 17 18 19 21 20 23 14 13 17 18 17 9 8 7 8 7 7 8 9 10 10 10 10 10 10 10 11 11 10 9 11 11 12 13
8 7 7 7 7 8 7 7 8 6 7 6 6 8 6 5 6 5 6 6 6 9 9 7 8 10 11 9 6 6 7 7 11 10 11 15 17 18 20 16 13 11 11 14 14 11 9 9 9 11 15 17 17 18 18 21 19 14 18 17 17 17 12 7 7 7 8 10 10 10 10 10 10 10 11 11 11 11 11 10 10 11 9 8 4
7 7 7 7 9 8 8 8 7 6 6 7 6 7 8 7 6 5 5 5 6 9 9 6 7 9 10 12 11 8 5 6 7 11 11 13 16 18 19 20 20 13 11 13 13 11 10 9 9 12 15 15 17 18 18 18 13 17 19 22 18 15 9 7 8 10 10 9 9 11 11 11 11 11 11 10 10 10 10 10 9 9 9 4 5
7 6 6 7 7 8 8 6 6 5 5 6 8 8 9 7 9 7 4 5 6 7 9 7 7 9 9 11 12 12 9 5 6 7 10 13 16 18 18 20 20 19 14 13 13 11 13 16 15 15 15 17 19 19 17 19 21 19 19 17 14 8 9 9 10 10 9 9 10 10 10 11 11 9 8 8 8 8 8 7 6 7 6 6 5
7 8 8 9 9 10 12 11 8 7 8 6 6 6 7 8 8 9 7 6 6 7 9 8 8 8 9 10 11 11 11 9 8 6 6 9 11 14 18 18 18 18 18 16 18 19 18 18 18 18 16 15 12 10 10 9 14 18 18 16 10 10 10 9 10 11 10 11 12 11 11 8 9 8 8 8 8 9 9 9 9 9 9 7 7
11 10 11 11 10 10 11 9 11 11 8 8 7 6 6 6 7 9 8 7 7 7 8 8 9 9 9 10 10 11 11 11 10 6 4 5 6 7 7 9 13 14 12 11 12 13 15 16 13 14 12 14 15 14 13 11 10 11 10 10 10 10 10 10 10 10 9 10 10 9 8 7 6 7 9 8 8 9 10 9 11 12 12 9 10
10 11 11 9 9 9 9 12 12 10 10 8 9 10 8 5 7 9 9 7 7 10 9 9 10 9 9 10 10 10 12 11 11 7 6 5 5 5 6 6 6 4 6 7 9 10 10 11 12 10 10 10 10 9 9 8 9 9 9 9 10 10 11 12 10 9 10 9 8 8 7 8 10 10 9 10 10 9 9 10 8 9 10 10 7
10 11 10 9 9 9 9 9 9 10 11 10 8 7 8 10 9 11 11 6 7 9 10 11 11 8 7 9 10 11 12 14 12 4 5 9 9 9 8 8 7 9 10 12 11 9 8 9 9 10 10 11 10 9 7 7 8 10 10 9 8 9 8 8 10 10 10 9 9 9 9 9 9 9 10 8 9 9 9 10 11 10 8 11 13
10 9 9 9 9 9 9 9 9 9 10 10 12 14 10 11 11 11 13 12 12 16 15 12 12 9 9 11 10 10 12 15 20 22 21 20 20 20 20 21 20 14 14 16 12 12 10 10 10 9 9 9 9 10 9 8 10 10 10 10 10 9 11 11 11 11 10 11 10 10 10 9 9 9 10 10 9 8 10 11 11 11 11 9 10
9 8 9 9 10 11 10 10 10 9 9 9 10 11 14 15 12 16 19 21 21 19 19 23 23 21 14 13 15 20 20 22 24 25 24 21 19 20 20 21 21 19 17 12 11 11 10 11 10 9 10 11 12 12 11 10 9 10 10 10 11 12 11 10 10 10 11 12 12 11 10 10 10 10 10 10 10 9 8 9 8 10 12 13 10
9 9 9 10 11 10 9 10 10 10 10 9 9 10 12 13 17 18 12 14 20 22 21 21 21 22 22 19 16 14 18 18 18 20 22 23 21 21 22 24 26 24 21 18 14 13 10 10 11 9 10 11 12 11 11 12 10 9 8 9 11 11 11 10 10 10 11 10 11 10 10 10 11 10 10 10 10 8 8 8 8 10 11 10 10
10 10 9 10 10 11 10 10 10 10 11 11 11 10 10 11 13 16 20 17 14 17 22 23 20 19 21 21 21 19 20 22 24 22 22 23 24 22 23 26 27 27 25 16 15 15 12 10 11 11 10 12 11 11 11 10 11 10 10 10 9 9 10 10 9 10 10 10 10 10 10 10 10 9 10 10 9 7 8 7 9 11 11 10 9
9 8 9 10 11 10 9 9 10 10 10 10 10 11 11 11 11 13 15 16 18 15 12 15 15 19 21 23 21 20 21 22 22 23 22 22 22 22 22 21 25 27 22 14 13 13 12 11 12 11 11 11 11 10 10 10 10 10 9 9 9 8 8 7 9 11 9 10 10 10 9 9 9 10 9 9 9 10 12 12 8 8 8 10 11
8 9 13 11 9 9 9 9 10 11 11 11 11 11 12 12 12 12 12 13 14 15 16 15 14 14 16 18 23 26 24 25 26 24 24 24 24 23 24 18 15 11 12 12 13 13 12 12 12 11 10 11 11 10 10 9 8 9 9 9 8 7 7 8 9 9 9 9 10 10 10 10 10 10 10 9 8 8 10 10 10 11 11 10 10
8 8 8 9 8 9 9 9 10 11 11 11 11 12 12 12 13 12 13 14 14 15 16 15 15 16 26 25 26 26 25 24 23 24 23 24 24 23 16 13 12 11 11 10 11 12 12 12 12 11 10 10 9 9 9 9 9 9 8 8 8 8 8 8 9 9 10 10 10 10 10 10 10 10 10 10 12 12 11 12 12 11 10 9 9
8 8 8 8 8 9 10 10 10 11 12 12 12 12 12 13 13 12 14 14 14 14 14 15 14 14 11 8 9 16 25 26 25 25 24 23 25 17 13 13 12 12 11 11 10 10 11 12 11 10 10 9 9 8 8 8 8 8 7 8 8 8 8 8 8 8 9 9 10 10 11 10 11 11 11 10 10 9 9 10 10 9 9 9 8
7 8 8 9 10 10 11 10 10 14 12 11 11 11 12 12 12 13 14 14 15 15 14 14 14 13 14 14 14 12 14 19 22 17 16 16 13 11 11 12 12 12 12 11 10 10 11 11 10 10 10 9 9 8 8 8 7 7 7 8 8 8 9 8 9 10 10 9 10 10 10 10 10 10 10 11 11 10 9 9 9 9 8 8 8
6 11 15 16 13 10 9 10 11 10 11 11 10 12 13 13 13 12 13 13 14 14 14 13 13 14 14 11 12 12 15 14 12 11 11 9 9 9 10 11 11 11 11 11 10 10 10 10 9 9 9 8 8 8 7 7 6 7 7 7 8 7 8 8 8 8 8 8 8 8 9 9 9 9 9 9 9 10 10 10 9 9 9 9 10
8 8 9 15 10 10 10 10 11 10 10 11 11 11 12 13 13 14 14 14 15 15 13 14 15 13 11 11 12 11 13 15 14 13 12 12 10 9 9 10 10 11 11 10 10 9 10 9 9 8 7 7 7 7 7 7 7 7 7 7 7 7 7 7 7 7 7 7 7 7 8 8 8 8 9 9 9 9 10 10 9 9 9 9 9
7 8 9 10 12 10 10 10 9 9 10 11 12 12 13 14 13 14 14 15 15 15 15 14 14 13 14 18 25 24 16 15 14 13 12 12 11 11 10 9 10 10 10 10 9 9 8 8 8 7 6 6 6 6 6 7 7 6 7 6 6 6 6 6 6 6 6 6 6 7 7 7 7 8 9 7 7 7 7 7 8 8 7 8 8
8 7 8 8 9 9 9 10 10 11 11 11 11 11 12 12 13 13 14 15 15 15 16 15 14 14 17 28 26 27 18 13 13 13 12 12 11 11 10 9 9 9 9 9 8 8 8 7 7 5 5 5 5 6 5 6 6 6 6 6 6 5 5 5 5 5 6 6 6 6 6 7 7 7 7 7 7 7 7 7 7 7 7 8 7
8 8 8 9 8 8 9 9 10 9 9 10 9 10 13 13 13 13 14 14 15 15 16 16 15 15 16 20 22 24 14 12 11 12 11 11 11 10 10 9 8 8 8 8 7 6 6 5 4 4 4 5 6 6 7 6 5 4 4 4 4 4 4 4 4 4 5 5 5 5 6 6 6 6 6 5 6 6 7 7 7 7 7 8 8
7 8 8 8 9 8 9 9 9 10 10 13 14 14 13 12 12 13 13 14 14 14 14 15 14 15 15 16 16 13 11 11 11 10 11 10 10 10 9 8 7 6 6 4 3 2 3 3 2 1 1 1 1 2 2 1 2 3 4 4 3 3 4 4 4 4 4 5 5 5 5 5 5 5 5 5 6 7 6 7 7 7 7 7 7
7 7 8 8 8 8 9 9 10 10 12 12 10 11 12 12 12 12 13 13 14 14 13 13 14 13 13 12 11 11 11 10 9 8 8 8 7 6 6 6 6 6 6 6 5 4 3 3 3 4 4 4 4 4 4 4 4 3 2 3 4 4 4 4 4 4 4 5 6 5 5 5 5 5 5 5 6 6 7 7 7 7 6 7 7
6 7 8 8 8 9 9 9 10 10 10 10 11 10 10 10 10 11 12 12 12 12 12 12 11 11 11 10 10 9 9 8 7 6 6 6 6 6 6 5 6 6 5 6 7 7 6 5 5 5 5 5 5 5 6 6 6 6 5 5 4 4 3 3 3 4 4 5 5 5 5 5 5 5 6 6 6 6 6 7 7 7 7 8 7
6 5 6 7 8 9 10 10 9 9 9 10 10 10 10 10 10 11 11 12 12 12 10 10 10 10 10 10 10 9 9 8 8 8 8 7 7 7 6 6 6 6 6 7 8 7 7 7 7 7 6 5 6 8 7 6 6 6 6 6 5 5 4 4 4 4 3 3 4 5 5 5 5 6 6 6 6 6 6 6 7 7 7 7 7
5 5 5 6 6 7 8 8 9 11 9 9 10 10 10 10 10 10 10 10 11 11 10 10 10 10 10 9 9 9 8 7 7 7 7 8 8 8 8 8 8 6 7 8 8 7 7 7 7 7 8 8 7 6 7 7 7 7 6 6 6 6 6 7 6 5 4 4 4 4 5 5 5 6 6 6 6 6 6 5 5 5 5 5 4
4 5 5 6 6 6 7 8 9 8 9 9 9 9 9 9 9 9 9 10 10 10 9 10 10 9 9 9 8 8 8 8 7 7 7 7 8 8 8 8 8 8 9 8 8 7 8 9 8 8 7 7 8 7 7 8 7 7 7 6 7 11 12 11 7 6 6 6 6 6 6 6 6 6 6 6 6 5 6 6 6 6 5 5 6
5 5 4 5 6 6 6 7 7 7 8 8 8 8 9 8 8 9 9 9 9 9 9 9 9 9 9 9 9 9 8 8 8 8 8 8 8 8 8 8 9 8 8 8 8 8 8 8 8 7 7 7 7 6 6 6 6 6 6 7 11 12 11 11 12 9 7 5 6 6 7 7 7 6 5 6 6 7 7 6 6 5 6 6 6
6 5 5 5 5 5 6 6 6 6 7 7 7 8 8 8 8 8 8 8 9 9 9 8 8 9 8 8 8 8 8 8 8 7 7 8 8 8 7 8 8 8 8 8 8 8 8 7 8 7 7 7 6 6 6 6 6 7 9 12 11 11 11 8 8 8 9 7 5 5 6 6 7 6 5 5 5 6 5 6 6 6 5 5 5
Wind_Direction
215 235 233 236 234 242 246 239 248 244 253 241 237 241 240 231 224 223 215 222 208 218 216 212 208 209 210 215 220 221 221 223 218 220 224 226 224 225 223 221 229 232 220 222 219 217 219 223 225 224 218 223 222 221 221 220 219 222 218 218 221 215 218 228 240 257 240 110 141 183 165 159 189 192 195 192 191 195 195 202 192 192 186 189 192
269 271 241 239 246 263 262 263 256 255 250 253 248 248 248 245 242 223 220 225 205 223 225 223 218 212 212 214 216 222 225 225 221 220 227 230 229 223 224 220 225 229 218 227 220 219 219 223 227 227 219 224 220 223 217 218 216 215 217 214 219 219 215 221 238 244 254 146 209 109 159 180 193 188 191 187 196 184 192 191 195 192 181 183 195
326 321 312 309 301 303 313 278 256 250 252 257 255 255 252 252 249 235 230 231 226 227 229 227 223 223 227 226 219 216 217 221 220 221 228 229 228 226 224 221 224 227 227 228 224 216 219 222 227 226 221 226 224 226 217 221 214 217 219 213 222 222 218 219 229 241 246 242 166 179 182 187 197 190 195 199 189 179 180 181 177 186 191 189 192
337 336 329 325 327 328 303 282 270 263 260 259 259 257 253 251 246 245 238 231 234 235 233 234 224 225 234 235 231 228 222 219 221 222 228 227 230 229 224 224 225 228 230 232 228 221 223 226 230 225 222 226 225 223 221 219 215 219 220 218 222 224 222 216 222 234 241 250 195 196 186 176 206 177 185 187 174 188 194 155 165 185 179 188 189
338 331 327 318 317 312 296 292 282 276 267 271 268 269 261 255 247 245 242 238 237 241 241 230 236 232 232 235 235 233 231 226 228 231 230 228 231 234 231 228 228 230 232 233 229 226 226 227 231 223 222 230 229 227 221 220 218 218 220 220 221 225 224 219 223 223 237 240 231 183 167 196 181 166 177 171 180 183 184 188 185 177 180 187 186
314 310 323 323 315 319 307 306 288 277 274 273 268 266 263 254 251 249 238 247 251 245 241 231 226 235 236 240 238 240 234 230 233 238 237 231 232 236 239 238 235 234 235 235 232 229 232 233 233 225 224 225 231 227 224 225 221 222 222 222 222 222 223 222 218 223 227 239 228 179 179 178 177 189 185 185 182 183 187 182 151 181 180 193 197
314 327 326 327 310 303 296 282 273 269 265 263 267 264 255 250 243 246 235 237 247 247 237 236 235 235 241 243 241 239 238 233 238 242 243 239 235 234 235 237 239 237 236 235 233 234 235 237 234 228 229 228 231 227 224 225 222 225 220 223 222 219 222 219 215 218 223 230 230 209 182 200 182 180 187 191 196 195 188 168 195 194 196 187 181
321 327 329 319 295 288 280 272 266 263 262 259 257 256 251 242 239 246 236 237 239 243 245 240 243 237 246 246 247 240 239 238 238 240 239 236 235 235 234 235 236 236 235 234 235 237 237 237 236 233 231 231 229 231 222 227 221 228 222 220 221 218 221 217 214 215 220 223 223 211 200 174 191 186 161 176 197 217 202 189 186 180 190 192 192
340 341 331 310 298 287 285 276 267 275 276 270 262 253 249 254 258 251 244 247 245 245 245 244 249 249 246 242 245 237 236 238 236 235 237 237 232 237 234 236 237 240 238 235 234 236 238 238 238 236 233 233 230 229 226 222 220 228 223 211 219 216 221 216 214 211 218 220 225 205 201 200 192 171 179 193 197 200 178 188 200 175 161 177 197
4 357 5 336 308 300 297 300 302 288 290 293 294 298 294 290 281 275 265 258 257 252 251 248 247 251 254 253 244 238 239 239 238 238 236 239 239 240 241 241 239 241 242 243 239 235 238 240 241 237 236 234 234 234 233 230 227 227 225 208 214 214 216 214 212 211 213 218 219 204 205 213 203 196 194 202 189 158 174 187 200 193 176 180 194
23 24 12 349 338 337 347 347 339 341 332 323 321 323 318 310 305 290 282 272 265 264 257 258 254 252 251 255 255 246 243 240 240 242 243 241 240 242 241 243 237 240 243 245 248 242 239 237 242 240 239 240 239 238 236 236 235 234 233 225 214 208 211 213 217 208 211 219 217 210 213 216 212 204 207 186 187 191 191 187 181 178 185 178 204
25 18 4 355 358 357 352 345 349 342 339 336 332 326 322 323 313 300 295 288 276 268 263 257 261 260 257 254 255 255 255 250 248 248 246 246 242 243 243 246 244 243 243 246 249 247 245 243 239 237 236 235 237 240 241 240 239 239 237 235 228 219 213 210 213 212 213 217 218 216 213 217 212 197 200 185 185 188 194 182 186 192 189 199 201
16 17 5 5 0 357 353 353 349 348 347 339 333 330 329 323 313 306 294 283 291 276 269 270 265 263 258 261 261 257 258 255 255 254 252 251 248 245 248 242 245 245 244 245 246 246 244 245 247 236 237 232 234 237 238 240 239 240 242 240 236 229 223 223 221 217 208 216 222 220 214 211 207 206 189 189 176 189 182 187 194 199 201 205 208
18 8 4 5 356 352 352 350 348 342 337 337 337 335 334 324 312 299 294 298 286 280 275 269 268 265 260 262 266 266 263 264 258 258 259 257 254 250 250 247 246 246 246 245 246 245 242 243 247 245 233 228 227 230 235 238 238 240 241 239 238 235 231 228 226 225 219 219 220 226 219 198 212 198 188 179 177 184 185 191 188 193 196 206 209
15 7 0 357 355 353 350 346 340 337 335 336 333 330 324 315 314 308 299 295 296 290 291 290 277 269 267 262 268 270 266 262 259 261 262 261 260 256 255 253 252 252 248 245 245 245 245 242 243 248 243 232 224 218 229 231 234 237 237 238 236 234 230 228 225 223 222 222 223 230 222 202 208 188 176 183 191 190 189 186 187 190 179 100 60
14 8 0 359 355 347 342 335 332 333 334 335 335 331 330 319 315 316 307 295 279 277 280 266 278 280 274 272 274 275 271 256 260 261 262 262 262 260 258 255 255 254 252 247 245 244 243 241 244 246 244 241 230 219 223 225 231 235 237 240 240 238 236 229 224 225 224 224 224 225 215 201 192 178 175 180 186 184 166 118 118 131 135 169 177
10 359 355 350 349 345 343 336 333 334 335 335 334 332 330 327 320 316 309 300 300 295 285 279 277 280 281 274 272 277 278 265 261 260 260 262 264 261 257 257 256 255 255 251 247 244 238 234 236 244 244 244 233 233 234 220 231 233 237 242 242 240 242 231 227 228 229 231 227 218 210 195 185 183 181 183 179 170 162 166 183 171 170 168 190
356 352 349 348 344 345 341 339 332 329 330 328 322 315 310 300 296 308 304 306 302 292 293 292 279 269 274 273 262 273 279 271 263 263 260 259 256 258 256 258 259 256 261 256 250 248 238 229 229 234 240 241 233 237 233 222 231 232 232 239 243 242 242 223 218 223 220 218 212 206 208 198 191 190 187 186 183 177 180 191 175 163 181 180 193
352 346 339 336 336 335 333 330 324 320 319 314 313 311 309 306 301 300 286 283 280 288 288 286 285 272 258 265 266 263 273 277 262 261 260 259 257 256 257 257 260 259 259 262 252 245 245 231 227 228 233 237 238 235 226 220 230 231 231 235 242 243 237 191 207 206 208 205 210 205 209 202 195 192 196 193 186 181 190 182 165 176 176 191 192
329 322 322 326 324 323 321 318 309 309 307 303 302 297 297 302 300 299 292 277 286 289 282 280 284 283 271 265 267 255 268 274 260 254 255 254 253 254 254 255 258 262 259 260 266 254 240 241 230 229 235 237 236 232 232 227 228 233 231 236 240 246 221 206 207 200 205 202 202 198 200 194 191 191 191 190 185 186 192 189 177 181 188 186 184
333 329 325 323 322 316 312 306 306 300 289 293 293 294 296 296 301 301 301 301 295 295 291 287 284 285 280 265 265 264 251 265 267 245 252 254 251 248 252 250 255 261 266 264 259 262 256 243 241 226 228 232 233 236 236 233 233 229 229 234 234 244 216 196 206 201 205 205 204 201 200 192 192 191 188 188 187 189 193 194 186 191 189 188 191
333 329 325 320 313 310 306 302 289 291 296 298 301 293 284 280 281 286 288 292 299 297 295 294 293 292 293 275 261 266 252 241 262 257 247 250 251 245 246 251 246 256 264 264 262 259 255 255 250 221 227 230 232 231 234 233 237 234 234 236 240 240 224 204 201 203 204 202 204 204 202 197 196 194 191 189 186 185 191 190 191 196 200 197 190
331 324 319 317 319 316 313 311 309 305 299 293 290 293 288 286 283 278 285 297 296 298 299 300 301 300 302 298 281 259 261 253 239 252 247 247 249 250 246 250 249 245 254 262 261 260 260 255 248 226 217 223 226 231 234 234 238 236 237 233 229 226 215 203 198 198 203 208 204 203 202 200 196 193 189 189 186 183 187 186 189 193 199 205 202
330 326 324 323 320 318 313 309 298 294 293 295 290 291 303 304 297 287 286 296 304 304 302 300 297 297 300 303 301 293 266 260 248 238 247 248 249 251 253 252 252 249 248 257 263 263 262 254 248 239 230 220 223 229 234 232 230 232 233 235 220 210 205 205 204 205 206 206 206 206 207 204 203 197 197 187 182 180 183 183 182 185 185 162 141
324 320 319 315 313 309 307 303 300 297 298 304 315 317 313 317 314 309 297 291 289 289 289 296 291 290 295 292 295 297 295 268 265 244 234 249 251 253 255 256 256 253 255 258 260 261 261 259 254 245 237 233 226 228 232 232 230 230 231 230 217 210 212 211 212 205 207 205 204 209 205 204 202 198 182 178 174 167 170 172 162 167 158 146 129
333 336 335 333 329 327 325 323 321 320 319 316 305 296 299 306 305 302 304 291 284 280 287 293 289 286 284 286 288 290 294 294 280 263 242 251 255 256 256 258 261 257 254 260 264 267 266 263 257 251 241 232 231 230 235 231 229 230 230 225 217 216 211 210 205 207 209 209 211 210 210 198 197 187 176 172 166 171 167 167 164 170 166 154 144
344 342 340 332 329 330 327 326 325 324 325 321 311 300 291 289 288 286 287 289 288 282 282 281 285 286 283 287 289 292 293 292 290 282 251 254 256 260 255 261 263 265 265 261 264 265 265 262 257 251 244 232 226 227 229 228 226 228 227 222 221 217 214 212 207 207 209 212 214 212 206 192 170 165 181 182 179 178 178 170 175 178 171 166 168
341 333 328 323 323 325 322 323 323 316 318 319 315 313 303 281 281 283 288 290 292 292 287 283 279 279 291 289 291 294 292 292 289 294 281 264 258 260 251 255 262 244 258 262 259 261 264 265 260 254 245 239 231 228 228 221 220 217 218 216 218 218 218 218 215 215 213 211 212 204 194 182 186 189 185 188 189 181 177 177 172 167 166 155 155
335 327 325 325 323 324 319 317 314 314 312 312 300 283 293 303 292 283 270 247 242 265 276 277 272 272 269 275 283 290 289 285 281 284 270 282 282 287 279 269 263 265 257 258 267 266 262 261 259 253 243 238 233 230 218 214 216 218 217 217 213 213 209 209 213 211 207 203 208 202 201 191 192 186 189 188 190 186 182 185 184 172 161 172 179
329 326 326 325 321 320 317 314 317 315 314 313 314 310 286 267 268 278 287 278 246 252 258 263 271 279 273 266 256 259 271 279 290 292 288 287 285 280 276 275 271 262 262 259 255 268 261 258 251 243 238 233 232 231 223 214 218 214 216 211 212 210 206 206 205 208 198 201 202 200 200 192 193 185 188 190 187 183 187 186 182 174 167 170 179
323 321 324 323 321 319 316 314 314 311 307 308 310 308 311 310 281 258 262 277 279 270 260 262 267 267 265 277 277 269 264 268 279 286 289 287 282 279 276 273 270 259 252 260 258 249 250 246 243 234 233 233 235 233 227 223 216 213 213 212 214 216 213 210 210 206 204 203 199 195 191 190 191 187 188 190 186 180 178 187 183 181 180 180 179
321 318 318 314 315 314 310 309 308 308 307 309 307 307 308 307 308 303 279 258 274 284 282 274 271 272 269 265 271 284 281 274 269 275 283 286 286 285 283 280 276 271 261 247 253 252 243 243 243 235 231 233 234 230 229 227 224 214 213 214 218 216 213 213 208 203 205 202 201 197 191 187 187 188 190 187 182 177 169 173 178 183 185 182 186
315 312 311 310 310 311 307 307 306 305 306 308 308 307 302 302 303 307 311 305 281 272 281 284 280 273 275 276 270 267 273 281 283 280 279 281 283 281 278 279 280 276 270 259 248 252 248 241 243 242 234 234 234 229 228 226 225 225 220 221 219 214 215 215 200 206 204 202 197 200 195 189 185 182 185 184 176 162 174 180 182 187 179 174 178
311 307 311 312 311 309 308 305 305 303 301 298 298 298 294 293 288 291 296 304 312 303 272 258 271 290 292 287 283 282 283 283 283 284 283 281 278 275 274 276 275 273 265 255 249 247 249 246 244 241 238 236 235 230 228 226 224 226 226 226 227 222 218 206 204 208 202 199 197 198 191 189 182 180 184 184 184 182 187 191 183 178 169 172 178
314 308 304 302 300 300 301 300 298 298 298 298 298 296 294 292 290 287 284 291 295 296 304 301 292 285 288 294 296 292 286 283 284 285 283 281 279 276 278 279 275 269 254 244 248 248 247 247 246 243 237 236 235 229 230 226 223 223 224 225 221 217 213 211 211 208 202 197 195 194 188 184 182 179 178 178 176 176 187 186 189 189 180 180 183
316 311 308 304 298 292 292 292 292 291 293 292 291 291 291 291 292 287 286 284 282 287 291 290 294 301 296 293 291 291 286 282 279 278 273 272 274 276 276 270 267 259 252 241 240 246 248 250 250 249 243 240 237 229 226 222 222 221 219 216 217 214 214 213 211 208 203 199 196 186 182 184 181 179 178 180 183 185 185 189 190 188 181 180 180
312 307 303 299 298 296 293 290 286 288 290 291 291 289 289 288 287 288 287 285 286 287 285 292 299 296 286 275 275 284 292 290 283 275 268 269 272 272 267 269 265 263 254 248 245 246 249 250 249 250 245 241 234 227 221 220 217 214 209 211 213 215 215 212 208 204 201 199 194 187 186 186 183 182 177 179 183 185 188 189 189 180 177 175 168
298 300 299 303 301 298 296 294 295 296 293 291 292 292 291 289 288 290 290 289 289 291 293 294 296 294 299 302 307 299 296 290 287 278 271 269 267 261 261 261 261 258 257 251 248 247 250 252 251 248 246 237 233 222 217 215 207 204 207 211 213 216 213 209 208 204 201 197 195 190 187 187 185 184 182 181 179 179 181 182 183 173 165 158 163
305 309 309 307 302 300 299 299 299 300 299 297 297 298 296 296 295 292 292 293 292 289 290 291 293 294 295 301 301 299 296 293 291 290 286 274 262 259 258 260 259 258 255 254 250 249 250 253 252 249 243 236 229 220 211 208 199 204 206 208 212 213 211 210 208 205 200 198 193 187 187 187 184 184 183 182 180 177 177 175 179 172 165 167 180
314 310 310 313 309 303 302 302 301 300 299 302 302 303 301 300 296 295 294 295 293 294 294 293 293 294 300 303 300 303 297 294 290 289 290 285 276 265 258 257 257 256 257 255 252 248 251 251 252 250 242 234 221 210 202 199 202 204 204 206 208 211 207 203 202 202 199 192 187 181 182 181 179 180 185 188 182 178 176 176 176 175 175 174 178
307 307 306 309 307 306 301 297 294 295 301 303 302 299 295 293 291 292 293 292 292 293 293 292 292 293 297 297 298 297 292 288 288 286 284 284 283 276 268 262 258 258 257 256 254 250 247 250 248 248 241 226 210 200 197 199 199 200 201 203 204 207 202 197 195 193 188 182 179 175 175 172 168 173 184 182 172 170 167 162 164 169 168 168 171
308 306 308 306 310 304 299 299 296 299 296 291 288 287 289 292 294 295 295 294 294 294 294 293 291 293 294 297 298 298 295 287 286 287 285 282 282 279 274 269 263 260 259 257 253 250 245 243 240 234 226 209 194 197 194 197 196 196 198 194 199 193 187 187 186 182 177 179 169 166 163 162 165 170 167 163 158 157 159 163 164 161 163 166 167
307 309 308 307 306 304 303 300 300 296 292 291 287 292 298 300 300 300 297 296 295 295 296 295 297 298 298 302 305 303 294 289 287 287 287 285 283 282 280 275 272 264 258 254 249 239 231 218 213 206 202 197 194 191 194 194 186 176 174 184 178 173 166 158 164 172 169 164 161 151 150 153 155 154 149 142 144 144 149 149 154 161 164 166 167
314 313 311 310 308 305 303 303 307 309 308 312 313 313 311 308 305 303 301 300 300 301 301 301 303 307 306 308 307 303 298 300 297 295 293 292 288 285 289 291 292 287 277 265 230 191 178 186 167 91 56 48 49 60 58 64 123 157 154 153 150 144 144 148 152 151 145 140 135 132 133 130 127 131 131 135 140 141 146 150 154 161 159 161 160
317 320 318 314 315 314 315 317 316 315 317 317 317 316 317 317 312 312 312 309 310 310 310 311 311 309 312 315 316 314 313 311 312 318 324 328 333 346 351 351 356 358 6 5 1 24 47 65 73 74 60 46 44 48 51 50 51 63 83 120 136 139 150 158 158 147 139 140 142 142 139 137 140 141 138 141 144 145 150 154 156 148 147 153 157
322 318 319 320 320 318 318 315 319 318 317 319 317 319 318 316 313 315 316 317 314 314 315 315 317 318 318 320 322 323 324 327 333 337 336 341 344 347 353 355 3 7 6 2 7 16 26 40 55 61 56 48 48 48 47 48 49 45 49 49 61 64 60 64 102 126 135 138 139 143 140 142 142 145 141 141 145 145 150 153 153 159 162 161 162
317 312 321 320 322 321 320 321 320 318 320 319 317 317 317 316 318 318 318 317 317 316 319 319 323 326 323 324 329 330 335 344 345 344 346 343 343 351 357 1 3 13 12 22 24 19 22 32 43 46 48 40 53 57 50 41 49 50 50 49 54 52 48 58 56 67 76 103 127 138 144 145 140 138 137 135 141 144 142 153 156 157 158 160 161
312 315 313 316 316 318 320 321 320 324 319 317 317 317 317 318 319 321 322 324 325 324 323 326 329 328 330 334 338 339 342 344 346 348 352 357 1 1 6 9 14 7 27 34 28 25 27 31 34 43 51 52 43 47 50 53 50 57 53 54 53 61 63 66 70 61 62 72 83 107 120 128 131 134 136 138 141 141 138 138 135 138 141 141 142
312 315 315 320 319 322 320 323 321 320 319 319 318 319 320 322 321 323 327 327 327 328 330 335 332 330 332 335 339 341 343 348 355 358 1 359 4 9 8 12 16 21 35 38 28 20 30 41 38 43 45 50 50 51 53 58 56 53 53 51 56 61 64 64 70 70 70 81 86 89 94 97 99 103 103 106 116 117 117 118 120 118 115 119 122
308 308 311 312 316 311 315 314 310 309 317 318 319 321 323 325 328 330 328 329 328 330 332 333 335 336 335 342 343 345 350 352 355 357 1 4 6 8 12 8 14 16 20 20 20 20 28 29 32 33 38 39 44 49 46 50 57 54 48 57 61 57 61 65 68 59 68 78 82 92 97 101 99 101 100 106 108 115 115 120 123 124 127 129 132
308 309 307 304 303 305 310 311 311 315 314 317 320 324 323 326 326 326 328 330 331 331 329 331 331 334 337 341 341 344 348 352 354 356 360 5 4 8 11 12 14 15 21 19 18 20 21 19 31 24 28 36 35 38 47 52 50 58 66 65 61 58 54 48 48 45 57 66 84 90 102 108 114 108 106 107 111 113 120 116 119 119 120 124 122